GW0007 Weather Reports


Display with metric or nautical units.
time (UTC)temp
F
wind
direction
speed
MPH
gust
MPH
rain 1hr
in
rain 24hr
in
rain mn
in
humidity
%
barometer
mb
20260510070048 44 217 1.0 5.0 0.00 0.00 0.00 74 1020.8
20260510064547 45 151 3.0 6.0 0.00 0.00 0.00 75 1020.6
20260510063049 45 102 2.0 4.0 0.00 0.00 0.00 76 1020.6
20260510061553 45 116 3.0 4.0 0.00 0.00 0.00 76 1020.5
20260510060047 46 136 3.0 4.0 0.00 0.00 0.00 73 1020.5
20260510054535 47 121 2.0 3.0 0.00 0.00 0.00 72 1020.3
20260510053052 48 0 0.0 1.0 0.00 0.00 0.00 74 1020.3
20260510051544 48 68 0.0 3.0 0.00 0.00 0.00 71 1020.3
20260510050039 49 77 2.0 4.0 0.00 0.00 0.00 69 1020.3
20260510044537 50 66 3.0 4.0 0.00 0.00 0.00 71 1020.2
20260510043036 51 72 1.0 1.0 0.00 0.00 0.00 69 1020.2
20260510041543 52 68 0.0 3.0 0.00 0.00 0.00 69 1020.2
20260510040040 53 78 2.0 4.0 0.00 0.00 0.00 63 1020.1
20260510034538 55 93 3.0 8.0 0.00 0.00 0.00 56 1020.0
20260510033037 56 131 5.0 8.0 0.00 0.00 0.00 56 1019.7
20260510031557 57 140 3.0 7.0 0.00 0.00 0.00 54 1019.6
20260510030051 58 115 3.0 8.0 0.00 0.00 0.00 53 1019.3
20260510024539 59 133 4.0 8.0 0.00 0.00 0.00 51 1019.1
20260510023047 59 123 3.0 5.0 0.00 0.00 0.00 49 1018.9
20260510021543 60 79 2.0 5.0 0.00 0.00 0.00 47 1018.6
20260510020042 60 87 2.0 3.0 0.00 0.00 0.00 46 1018.5
20260510014545 60 71 2.0 5.0 0.00 0.00 0.00 46 1018.5
20260510013054 61 72 3.0 8.0 0.00 0.00 0.00 44 1018.4
20260510011544 62 46 5.0 10.0 0.00 0.00 0.00 43 1018.1
20260510010043 64 24 5.0 7.0 0.00 0.00 0.00 38 1018.1
20260510004548 63 62 1.0 8.0 0.00 0.00 0.00 36 1018.1
20260510003049 63 328 4.0 8.0 0.00 0.00 0.00 35 1018.1
20260510001543 65 6 4.0 7.0 0.00 0.00 0.00 35 1017.9
20260510000050 65 61 4.0 8.0 0.00 0.00 0.00 35 1017.8
20260509234541 64 36 1.0 4.0 0.00 0.00 0.00 37 1017.9
20260509233040 64 341 4.0 6.0 0.00 0.00 0.00 36 1017.9
20260509231536 64 360 2.0 6.0 0.00 0.00 0.00 37 1018.0
20260509230044 64 134 1.0 4.0 0.00 0.00 0.00 36 1017.9
20260509224542 63 332 1.0 3.0 0.00 0.00 0.00 35 1018.0
20260509223036 63 0 0.0 5.0 0.00 0.00 0.00 36 1018.0
20260509221533 63 325 5.0 9.0 0.00 0.00 0.00 36 1018.2
20260509220046 62 236 3.0 8.0 0.00 0.00 0.00 36 1018.2
20260509214540 63 79 4.0 10.0 0.00 0.00 0.00 37 1018.1
20260509213038 62 65 6.0 12.0 0.00 0.00 0.00 39 1018.1
20260509211541 61 89 7.0 15.0 0.00 0.00 0.00 39 1018.1
20260509210039 61 35 9.0 17.0 0.00 0.00 0.00 40 1018.0
20260509204550 62 8 9.0 13.0 0.00 0.00 0.00 35 1018.1
20260509203040 63 89 1.0 7.0 0.00 0.00 0.00 35 1018.1
20260509201540 62 12 3.0 15.0 0.00 0.00 0.00 34 1018.0
20260509200038 63 218 0.0 8.0 0.00 0.00 0.00 36 1017.9
20260509194536 61 120 4.0 11.0 0.00 0.00 0.00 36 1017.9
20260509193043 60 25 5.0 18.0 0.00 0.00 0.00 37 1017.9
20260509191542 60 52 10.0 17.0 0.00 0.00 0.00 39 1017.6
20260509190049 60 79 4.0 10.0 0.00 0.00 0.00 38 1017.7
20260509184540 60 314 6.0 22.0 0.00 0.00 0.00 36 1017.7
20260509183033 61 328 13.0 25.0 0.00 0.00 0.00 36 1017.3
20260509181544 62 278 13.0 26.0 0.00 0.00 0.00 33 1016.9
20260509180043 61 303 13.0 24.0 0.00 0.00 0.00 33 1017.1
20260509174542 61 320 15.0 28.0 0.00 0.00 0.00 34 1017.3
20260509173036 61 266 11.0 26.0 0.00 0.00 0.00 34 1017.4
20260509171537 60 309 12.0 22.0 0.00 0.00 0.00 35 1017.4
20260509170043 59 305 14.0 26.0 0.00 0.00 0.00 35 1017.4
20260509164542 59 308 15.0 28.0 0.00 0.00 0.00 36 1017.4
20260509163045 59 297 12.0 24.0 0.00 0.00 0.00 36 1017.4
20260509161544 58 327 16.0 27.0 0.00 0.00 0.00 36 1017.3
20260509160047 58 322 17.0 28.0 0.00 0.00 0.00 37 1017.1
20260509154546 58 321 13.0 23.0 0.00 0.00 0.00 41 1017.1
20260509153043 57 347 10.0 14.0 0.00 0.00 0.00 41 1017.1
20260509151542 56 314 8.0 13.0 0.00 0.00 0.00 41 1016.9
20260509150044 56 343 7.0 16.0 0.00 0.00 0.00 41 1016.8
20260509144544 56 228 14.0 22.0 0.00 0.00 0.00 37 1016.6
20260509143049 54 353 4.0 11.0 0.00 0.00 0.00 47 1016.9
20260509141548 53 0 2.0 5.0 0.00 0.00 0.00 46 1016.8
20260509140048 51 59 2.0 7.0 0.00 0.00 0.00 51 1016.7
20260509134537 52 295 2.0 12.0 0.00 0.00 0.00 44 1016.5
20260509133043 50 278 4.0 8.0 0.00 0.00 0.00 48 1016.5
20260509131539 49 295 8.0 14.0 0.00 0.00 0.00 48 1016.2
20260509130044 47 239 5.0 11.0 0.00 0.00 0.00 48 1016.1
20260509124542 48 256 3.0 10.0 0.00 0.00 0.00 47 1016.2
20260509123048 48 221 3.0 8.0 0.00 0.00 0.00 49 1016.2
20260509121535 49 152 7.0 10.0 0.00 0.00 0.00 45 1016.0
20260509120045 49 135 3.0 8.0 0.00 0.00 0.00 46 1015.9
20260509114544 50 237 3.0 12.0 0.00 0.00 0.00 47 1015.8
20260509113047 49 124 5.0 9.0 0.00 0.00 0.00 56 1015.4
20260509111546 48 151 0.0 3.0 0.00 0.00 0.00 57 1015.2
20260509110034 50 57 1.0 5.0 0.00 0.00 0.00 60 1015.0
20260509104537 51 120 4.0 11.0 0.00 0.00 0.00 49 1014.8
20260509103043 51 156 4.0 6.0 0.00 0.00 0.00 57 1014.5
20260509101543 50 105 4.0 8.0 0.00 0.00 0.00 58 1014.4
20260509100058 49 121 5.0 6.0 0.00 0.00 0.00 65 1014.2
20260509094541 48 101 2.0 5.0 0.00 0.00 0.00 68 1014.0
20260509093037 49 38 1.0 5.0 0.00 0.00 0.00 65 1013.8
20260509091556 51 275 3.0 8.0 0.00 0.00 0.00 60 1013.5
20260509090042 52 283 2.0 7.0 0.00 0.00 0.00 58 1013.3
20260509084538 54 169 1.0 4.0 0.00 0.01 0.00 54 1013.1
20260509083047 55 165 3.0 6.0 0.00 0.01 0.00 52 1012.8
20260509081556 55 0 0.0 1.0 0.00 0.01 0.00 51 1012.8
20260509080044 57 153 3.0 12.0 0.00 0.01 0.00 48 1012.9
20260509074541 58 222 5.0 9.0 0.00 0.01 0.00 47 1012.8
20260509073045 58 150 2.0 4.0 0.00 0.01 0.00 47 1012.6
20260509071540 58 155 3.0 4.0 0.00 0.01 0.00 47 1012.6